Weather reports worldwide

Advertisment
Coningsby, United Kingdom (3391): temperature & dewpoint: 17.09.2017 06:00:00 - 23.09.2017 06:00:00 (BST)Coningsby, United Kingdom (3391): temperature -20cm & temperature -100cm: 17.09.2017 06:00:00 - 23.09.2017 06:00:00 (BST)Coningsby, United Kingdom (3391): wind speed & gusts: 17.09.2017 06:00:00 - 23.09.2017 06:00:00 (BST)Coningsby, United Kingdom (3391): wind direction: 17.09.2017 06:00:00 - 23.09.2017 06:00:00 (BST)Coningsby, United Kingdom (3391): reduced air pressure: 17.09.2017 06:00:00 - 23.09.2017 06:00:00 (BST)Coningsby, United Kingdom (3391): visibility: 17.09.2017 06:00:00 - 23.09.2017 06:00:00 (BST)Coningsby, United Kingdom (3391): precipitation: 17.09.2017 06:00:00 - 23.09.2017 06:00:00 (BST)
Date & Time tt [°C] td [°C] tt -20cm [°C] tt -100cm [°C] ff [km/h] ff [kn] fx [km/h] fx [kn] dd ppp [hPa] vv [km] rr [mm]
23.09.2017 06:00:00 12,1 10,9 - - 11 6 - - SSE 1020,5 10 0,0
23.09.2017 05:00:00 12,0 10,9 - - 8 4 - - SSE 1020,2 10 0,0
23.09.2017 04:00:00 11,7 10,6 - - 11 6 - - S 1020,3 10 0,0
23.09.2017 03:00:00 11,9 10,6 - - 8 4 - - SSE 1020,5 10 0,0
23.09.2017 02:00:00 12,3 10,7 - - 11 6 - - S 1020,7 10 0,2
23.09.2017 01:00:00 12,9 10,4 - - 11 6 - - S 1020,9 10 0,0
23.09.2017 00:00:00 12,7 10,3 - - 13 7 - - S 1020,6 10 0,0
22.09.2017 23:00:00 12,1 10,0 - - 9 5 - - S 1020,7 10 0,0
22.09.2017 22:00:00 11,9 10,4 - - 8 4 - - SSE 1020,6 10 0,0
22.09.2017 21:00:00 13,0 11,1 - - 8 4 - - SSE 1020,3 10 0,4
22.09.2017 20:00:00 14,2 10,0 - - 8 4 - - SSE 1020,1 10 0,0
22.09.2017 19:00:00 15,2 9,8 - - 11 6 - - S 1019,9 10 0,0
22.09.2017 18:00:00 16,3 8,8 - - 11 6 - - S 1019,7 10 0,0
22.09.2017 17:00:00 16,4 8,7 - - 13 7 - - SSW 1019,7 10 0,0
22.09.2017 16:00:00 16,9 7,5 - - 16 9 - - S 1019,7 10 0,0
22.09.2017 15:00:00 17,9 8,2 - - 18 10 - - SSW 1019,8 10 0,0
22.09.2017 14:00:00 15,5 8,0 - - 15 8 - - SW 1019,9 10 0,0
22.09.2017 13:00:00 16,4 8,5 - - 13 7 - - SSW 1020,3 10 0,0
22.09.2017 12:00:00 15,4 7,5 - - 16 9 - - SSW 1020,4 10 0,0
22.09.2017 11:00:00 14,0 9,6 - - 11 6 - - SSW 1020,8 10 0,0
22.09.2017 10:00:00 12,1 8,8 13,4 14,7 5 3 - - S 1020,6 10 0,0
22.09.2017 09:00:00 8,2 7,9 - - 4 2 - - SE 1020,5 8 0,0
22.09.2017 08:00:00 5,0 4,8 - - 2 1 - - NNE 1020,5 0,5 0,0
22.09.2017 07:00:00 4,2 3,5 - - 2 1 - - SSW 1020,0 0,2 0,0
22.09.2017 06:00:00 4,1 3,9 - - 2 1 - - ESE 1019,5 0,2 0,0
22.09.2017 05:00:00 5,2 5,2 - - 2 1 - - E 1019,4 0,2 0,0
22.09.2017 04:00:00 5,3 5,0 - - 0 0 - - N 1019,4 0,3 0,0
22.09.2017 03:00:00 5,8 5,4 - - 2 1 - - W 1019,4 0,9 0,0
22.09.2017 02:00:00 7,6 7,1 - - 8 4 - - W 1019,1 4,0 0,0
22.09.2017 01:00:00 9,3 8,4 - - 9 5 - - W 1018,7 10 0,0
22.09.2017 00:00:00 8,3 8,2 - - 5 3 - - WSW 1018,1 5 0,0
21.09.2017 23:00:00 10,4 9,2 - - 9 5 - - W 1017,6 10 0,0
21.09.2017 22:00:00 11,5 10,2 - - 11 6 - - W 1016,9 10 0,0
21.09.2017 21:00:00 11,3 11,0 - - 8 4 - - WSW 1016,2 7 0,0
21.09.2017 20:00:00 12,8 12,1 - - 8 4 - - WNW 1015,4 10 0,4
21.09.2017 19:00:00 12,9 12,1 - - 21 11 50 27 NW 1014,5 10 1,8
21.09.2017 18:00:00 15,1 14,2 - - 13 7 - - S 1013,2 10 0,6
21.09.2017 17:00:00 14,9 14,2 - - 15 8 - - S 1013,0 4,0 1,2
21.09.2017 16:00:00 15,3 13,9 - - 13 7 - - S 1012,9 9 0,4
21.09.2017 15:00:00 16,9 12,4 - - 16 9 - - SSW 1012,8 10 0,0
21.09.2017 14:00:00 17,7 12,3 - - 22 12 - - SSW 1012,5 10 0,0
21.09.2017 13:00:00 17,6 11,9 - - 21 11 - - S 1012,5 10 0,0
21.09.2017 12:00:00 16,7 12,5 - - 21 11 - - S 1012,5 10 0,0
21.09.2017 11:00:00 16,3 12,7 - - 26 14 - - S 1012,5 10 0,0
21.09.2017 10:00:00 16,0 13,6 13,5 14,7 18 10 - - S 1012,9 10 0,0
21.09.2017 09:00:00 14,9 13,3 - - 16 9 - - S 1013,1 10 0,0
21.09.2017 08:00:00 14,1 12,8 - - 13 7 - - S 1013,0 10 0,0
21.09.2017 07:00:00 13,6 12,5 - - 13 7 - - SSE 1013,0 10 0,0
21.09.2017 06:00:00 13,2 12,3 - - 13 7 - - SSE 1012,9 10 0,0
21.09.2017 05:00:00 13,1 12,3 - - 11 6 - - S 1013,1 10 0,0
21.09.2017 04:00:00 12,9 12,5 - - 11 6 - - S 1013,6 7 0,6
21.09.2017 03:00:00 12,9 12,4 - - 11 6 - - S 1013,9 4,0 1,0
21.09.2017 02:00:00 13,0 12,2 - - 11 6 - - S 1014,1 5 0,0
21.09.2017 01:00:00 13,7 11,3 - - 11 6 - - S 1014,0 10 0,0
21.09.2017 00:00:00 13,8 10,9 - - 13 7 - - S 1014,2 10 0,0
20.09.2017 23:00:00 13,6 10,6 - - 11 6 - - S 1014,3 10 0,0
20.09.2017 22:00:00 13,5 10,3 - - 13 7 - - S 1014,4 10 0,0
20.09.2017 21:00:00 13,9 10,6 - - 13 7 - - S 1014,5 10 0,0
20.09.2017 20:00:00 14,4 10,8 - - 11 6 - - S 1014,6 35 0,0
20.09.2017 19:00:00 15,5 11,2 - - 15 8 - - S 1014,5 10 0,0
20.09.2017 18:00:00 17,2 10,5 - - 18 10 - - SSW 1014,7 10 0,0
20.09.2017 17:00:00 18,0 11,1 - - 22 12 - - SSW 1014,8 10 0,0
20.09.2017 16:00:00 17,6 11,2 - - 21 11 - - SSW 1015,4 10 0,0
20.09.2017 15:00:00 18,4 10,9 - - 24 13 - - SW 1015,6 10 0,0
20.09.2017 14:00:00 18,4 11,5 - - 16 9 - - SW 1015,8 10 0,0
20.09.2017 13:00:00 17,5 11,2 - - 22 12 - - SW 1016,3 10 0,0
20.09.2017 12:00:00 17,3 12,0 - - 16 9 - - SSW 1016,5 10 0,0
20.09.2017 11:00:00 14,8 11,9 - - 15 8 - - SSW 1017,1 10 0,0
20.09.2017 10:00:00 12,2 10,7 13,2 14,7 11 6 - - SSW 1017,4 10 0,0
20.09.2017 09:00:00 10,9 9,9 - - 9 5 - - S 1017,5 10 0,0
20.09.2017 08:00:00 9,1 8,2 - - 5 3 - - S 1017,7 10 0,0
20.09.2017 07:00:00 6,6 6,2 - - 4 2 - - SSE 1017,9 8 0,0
20.09.2017 06:00:00 6,3 5,7 - - 5 3 - - S 1018,1 10 0,0
20.09.2017 05:00:00 5,7 5,1 - - 5 3 - - SW 1018,4 10 0,0
20.09.2017 04:00:00 6,3 5,5 - - 4 2 - - SW 1018,6 10 0,0
20.09.2017 03:00:00 6,9 6,0 - - 8 4 - - SSW 1018,9 10 0,0
20.09.2017 02:00:00 7,6 6,2 - - 5 3 - - SSW 1019,3 10 0,0
20.09.2017 01:00:00 8,0 6,4 - - 8 4 - - S 1019,4 10 0,0
20.09.2017 00:00:00 7,9 6,4 - - 5 3 - - SSW 1019,9 10 0,0
19.09.2017 23:00:00 7,9 6,1 - - 8 4 - - SSW 1020,2 10 0,0
19.09.2017 22:00:00 8,6 6,5 - - 9 5 - - SSW 1020,1 10 0,0
19.09.2017 21:00:00 10,3 6,7 - - 8 4 - - SSW 1020,3 10 0,0
19.09.2017 20:00:00 11,2 6,7 - - 8 4 - - SSW 1020,3 10 0,0
19.09.2017 19:00:00 12,6 7,4 - - 8 4 - - WSW 1020,1 10 0,0
19.09.2017 18:00:00 15,4 6,3 - - 13 7 - - WSW 1020,1 10 0,0
19.09.2017 17:00:00 15,7 6,6 - - 18 10 - - W 1020,3 10 0,0
19.09.2017 16:00:00 15,3 7,2 - - 15 8 - - WSW 1020,5 10 0,0
19.09.2017 15:00:00 15,5 6,2 - - 15 8 - - WSW 1020,9 10 0,0
19.09.2017 14:00:00 15,8 7,3 - - 8 4 - - WSW 1021,1 10 0,0
19.09.2017 13:00:00 15,2 7,6 - - 8 4 - - WNW 1021,1 10 0,0
19.09.2017 12:00:00 14,3 8,9 - - 8 4 - - W 1021,1 40 0,0
19.09.2017 11:00:00 12,7 8,8 - - 9 5 - - W 1021,1 10 0,0
19.09.2017 10:00:00 11,3 8,5 13,4 14,7 4 2 - - NNW 1021,0 10 0,0
19.09.2017 09:00:00 9,3 7,5 - - 11 6 - - NNW 1020,8 10 0,0
19.09.2017 08:00:00 7,8 6,8 - - 11 6 - - NNW 1020,4 10 0,0
19.09.2017 07:00:00 7,5 6,8 - - 13 7 - - NW 1020,1 10 0,0
19.09.2017 06:00:00 8,1 7,3 - - 13 7 - - WNW 1019,8 7 0,0
19.09.2017 05:00:00 8,4 7,7 - - 16 9 - - NW 1019,7 6 0,0
19.09.2017 04:00:00 8,8 8,1 - - 9 5 - - WNW 1019,4 7 0,0
19.09.2017 03:00:00 9,2 8,4 - - 11 6 - - NW 1019,5 10 0,0
19.09.2017 02:00:00 9,1 8,3 - - 13 7 - - NW 1019,4 10 0,0
19.09.2017 01:00:00 9,1 8,2 - - 11 6 - - WNW 1019,2 10 0,0
19.09.2017 00:00:00 9,9 8,6 - - 11 6 - - NW 1019,2 10 0,0
18.09.2017 23:00:00 10,5 9,1 - - 13 7 - - NW 1019,1 10 0,0
18.09.2017 22:00:00 10,9 9,4 - - 9 5 - - NW 1018,9 10 0,0
18.09.2017 21:00:00 11,3 9,7 - - 5 3 - - NW 1018,9 10 0,0
18.09.2017 20:00:00 11,5 9,8 - - 4 2 - - NW 1018,4 10 0,2
18.09.2017 19:00:00 13,1 8,7 - - 5 3 - - ENE 1017,8 10 0,0
18.09.2017 18:00:00 13,8 8,9 - - 8 4 - - NNW 1017,6 10 0,0
18.09.2017 17:00:00 14,2 8,1 - - 13 7 - - N 1017,5 10 0,0
18.09.2017 16:00:00 14,6 8,3 - - 9 5 - - N 1017,5 40 0,0
18.09.2017 15:00:00 15,2 8,5 - - 18 10 - - NNW 1017,4 10 0,2
18.09.2017 14:00:00 15,1 9,1 - - 22 12 - - NNW 1017,2 10 0,0
18.09.2017 13:00:00 13,2 10,6 - - 28 15 - - NNW 1017,2 10 1,4
18.09.2017 12:00:00 15,0 9,2 - - 21 11 - - NNW 1017,1 10 0,0
18.09.2017 11:00:00 13,6 9,9 - - 22 12 - - NNW 1017,0 25 0,0
18.09.2017 10:00:00 11,7 10,3 13,4 14,9 18 10 - - NNW 1017,1 10 0,0
18.09.2017 09:00:00 10,5 9,8 - - 15 8 - - NW 1016,9 10 0,0
18.09.2017 08:00:00 9,8 9,3 - - 15 8 - - NW 1016,6 10 0,0
18.09.2017 07:00:00 9,2 8,8 - - 15 8 - - NW 1016,4 7 0,0
18.09.2017 06:00:00 9,0 8,7 - - 15 8 - - NW 1016,0 10 0,0
18.09.2017 05:00:00 9,4 9,0 - - 11 6 - - NW 1015,6 10 0,0
18.09.2017 04:00:00 9,2 8,7 - - 13 7 - - NW 1015,5 10 0,0
18.09.2017 03:00:00 9,3 9,0 - - 11 6 - - NW 1015,6 10 0,0
18.09.2017 02:00:00 9,8 9,6 - - 13 7 - - NNW 1015,6 7 0,0
18.09.2017 01:00:00 10,2 9,9 - - 15 8 - - NW 1015,7 1,0 0,2
18.09.2017 00:00:00 10,3 10,0 - - 13 7 - - NW 1015,7 8 0,2
17.09.2017 23:00:00 10,0 9,5 - - 8 4 - - NW 1015,7 10 0,0
17.09.2017 22:00:00 10,5 9,8 - - 9 5 - - NW 1015,5 10 0,0
17.09.2017 21:00:00 11,5 10,3 - - 8 4 - - NNW 1015,4 10 0,0
17.09.2017 20:00:00 11,6 10,1 - - 9 5 - - N 1014,8 30 0,0
17.09.2017 19:00:00 12,8 9,7 - - 9 5 - - NNW 1014,2 10 0,0
17.09.2017 18:00:00 13,3 11,0 - - 13 7 - - NW 1014,1 10 0,0
17.09.2017 17:00:00 15,1 10,7 - - 18 10 - - WNW 1013,7 10 0,0
17.09.2017 16:00:00 13,9 9,0 - - 13 7 - - NNW 1013,7 10 0,0
17.09.2017 15:00:00 16,6 8,4 - - 9 5 - - N 1013,4 10 0,0
17.09.2017 14:00:00 16,9 9,5 - - 9 5 - - NNE 1013,5 10 0,0
17.09.2017 13:00:00 15,3 10,9 - - 13 7 - - NNW 1014,0 10 0,0
17.09.2017 12:00:00 13,6 11,5 - - 16 9 - - NW 1014,1 10 0,0
17.09.2017 11:00:00 11,6 11,3 - - 15 8 - - NW 1014,2 10 0,0
17.09.2017 10:00:00 10,6 10,4 13,2 14,9 11 6 - - NW 1014,2 1,5 0,0
17.09.2017 09:00:00 9,5 9,4 - - 15 8 - - NNW 1013,9 0,8 0,0
17.09.2017 08:00:00 8,7 8,5 - - 15 8 - - NNW 1013,4 0,4 0,0
17.09.2017 07:00:00 8,0 7,9 - - 13 7 - - NNW 1012,9 0,2 0,0
17.09.2017 06:00:00 8,0 7,9 - - 11 6 - - NNW 1012,5 0,1 0,2

tt = temperature
td = dewpoint
tt -20cm = temperature -20cm
tt -100cm = temperature -100cm
ff = wind speed
fx = gusts
dd = wind direction
ppp = reduced air pressure
vv = visibility
rr = precipitation

Next stations